SCP
-0 0 -0 0 0 -0 -0 -0 -0 -0 -0 -0 -0 0 0 0 0 0 0 0 0 -0 0 0 0 0 0 0 0 0 0 0 0 0 0 0 0 0 0 0 0 0 0 0 0
-0 -0 -0 -0 0 -0 -0 -0 -0 -0 -0 -0 -0 0 0 0 0 0 -0 -0 -0 -0 0 0 0 0 0 0 0 0 0 0 0 0 0 0 0 0 0 0 0 0 0 0 0
-0 -0 -0 -0 0 -0 -0 -0 -0 -0 -0 -0 -0 -0 0 0 0 0 -0 -0 -0 0 0 0 0 0 0 0 0 0 0 0 0 0 0 0 0 0 0 0 0 0 -0 0 0
0 0 0 -0 -0 -0 -0 -0 -0 -0 -0 -0 -0 -0 0 0 -0 0 -0 0 0 0 0 0 0 0 0 0 0 0 0 0 0 0 0 0 0 0 0 0 0 -0 -0 0 0
0 -0 -0 0 -0 -0 -0 -0 -0 -0 -0 -0 -0 0 0 -0 0 0 -0 -0 0 0 -0 0 0 0 0 0 0 0 0 0 0 0 0 0 0 0 0 0 -0 -0 -0 0 0
0 -0 -0 -0 0 -0 -0 -0 -0 -0 -0 -0 -0 0 0 -0 0 0 0 -0 0 0 0 0 0 0 0 0 0 0 0 0 0 0 0 0 0 0 0 0 -0 -0 -0 0 0
0 -0 -0 -0 0 0 -0 -0 -0 -0 -0 0 0 0 -0 -0 0 -0 -0 0 0 0 0 0 0 0 0 0 0 0 0 0 0 0 0 0 0 0 0 -0 -0 0 0 0 0
0 -0 -0 -0 -0 0 -0 0 -0 0 0 0 0 0 -0 0 0 0 0 0 0 0 0 0 0 0 0 0 0 0 0 0 0 0 0 0 -0 0 0 -0 0 0 0 0 0
-0 -0 -0 -0 -0 -0 -0 0 0 0 0 0 0 0 0 0 0 0 0 0 0 -0 0 0 0 0 0 0 0 0 0 0 0 0 0 0 0 0 0 -0 0 0 0 0 0
-0 -0 -0 -0 -0 -0 -0 0 0 0 0 0 0 0 0 -0 0 0 0 0 0 0 0 -0 -0 0 0 0 0 0 0 0 0 0 0 0 -0 0 0 -0 -0 0 0 0 0
-0 -0 -0 -0 -0 -0 0 -0 0 0 0 0 0 0 0 0 0 0 0 0 0 0 -0 0 -0 0 -0 -0 0 0 0 0 0 0 0 0 0 0 0 0 0 0 -0 0 0
-0 -0 -0 -0 -0 -0 -0 -0 0 0 0 0 0 0 -0 0 0 0 0 0 -0 -0 0 -0 0 -0 0 -0 -0 0 0 0 0 0 0 0 0 0 0 0 -0 0 -0 0 0
-0 -0 -0 -0 -0 0 0 -0 -0 -0 0 0 0 0 0 -0 0 0 0 0 0 0 0 -0 -0 -0 -0 0 0 0 0 0 0 0 0 0 0 0 0 0 0 0 0 0 0
-0 -0 -0 -0 0 0 0 0 -0 -0 0 0 0 0 0 0 0 0 0 0 0 -0 0 -0 -0 0 0 -0 0 0 0 0 0 0 0 0 0 0 0 0 0 0 0 0 0
-0 -0 -0 0 0 0 0 0 -0 0 0 0 0 0 0 0 0 0 0 0 0 0 0 -0 0 0 0 0 0 0 0 0 0 0 0 0 0 0 0 0 0 0 0 0 0
-0 -0 -0 -0 0 0 0 0 0 0 0 0 0 0 0 0 0 0 0 0 0 0 0 -0 0 0 -0 0 0 0 0 0 0 0 0 0 0 0 0 0 0 0 0 0 0
0 -0 0 0 0 0 0 0 0 0 0 0 0 0 0 0 0 0 0 0 0 0 0 0 0 -0 0 0 0 0 0 0 0 -0 0 0 0 0 0 0 0 0 0 0 0
-0 -0 -0 0 0 0 0 0 0 0 0 0 -0 0 0 0 0 0 0 0 0 0 0 0 0 0 0 0 0 0 0 0 0 0 0 0 0 0 0 0 0 0 0 0 0
0 0 0 0 0 -0 0 0 0 0 0 0 0 0 0 0 0 0 0 -0 0 0 0 0 0 0 0 0 0 0 0 0 0 0 0 0 0 0 0 0 0 0 0 0 0
0 0 0 0 0 0 0 0 0 0 0 0 0 0 0 -0 -0 -0 -0 -0 -0 0 0 0 0 0 0 0 0 0 0 0 0 0 0 0 0 0 0 0 0 0 0 0 0
0 0 0 0 0 0 0 0 0 0 0 0 0 0 0 0 -0 -0 -0 -0 0 0 0 0 0 0 0 0 0 0 0 0 0 0 0 0 0 0 0 0 0 0 0 0 0
0 0 0 0 0 0 0 0 0 0 0 0 0 0 0 0 0 0 -0 -0 0 -0 -0 0 0 0 0 0 0 0 0 0 0 0 0 0 0 0 0 0 0 0 0 0 0
0 0 0 0 0 0 0 0 0 0 0 0 0 0 0 0 0 0 0 0 0 0 -0 0 0 0 0 0 0 0 0 0 0 0 0 0 0 0 0 0 0 0 0 0 0
0 0 0 0 0 0 0 0 0 0 0 0 0 0 0 0 0 0 0 0 0 0 -0 0 0 0 0 0 0 0 0 0 0 0 0 0 0 0 0 0 0 0 0 0 0
0 0 0 0 0 0 0 0 0 0 0 0 0 0 0 0 0 0 0 0 0 0 0 0 0 0 0 0 0 0 0 0 0 0 0 0 0 0 0 0 0 0 0 0 0
0 0 0 0 0 0 0 0 0 0 0 0 0 0 0 0 0 0 0 0 0 0 0 0 0 0 0 0 0 0 0 0 0 0 0 0 0 0 0 0 0 0 0 0 0
0 0 0 0 0 0 0 0 0 0 0 0 0 0 0 0 0 0 0 0 0 0 0 0 0 0 0 0 0 0 0 0 0 0 0 0 0 0 0 0 0 0 0 0 0
Wind_Speed_500mb
33 34 36 40 44 46 50 54 52 41 30 15 4 6 10 11 11 13 13 8 7 6 7 7 10 11 4 2 2 6 9 7 13 12 9 21 9 15 5 11 5 5 18 23 33
30 34 36 37 40 43 47 52 51 39 32 14 3 6 10 9 9 13 12 8 4 1 3 3 8 11 9 5 2 6 7 15 16 12 10 21 15 20 13 13 4 17 26 37 33
31 31 35 37 38 41 45 49 49 38 33 13 1 8 12 10 10 10 14 6 4 6 3 2 5 16 8 8 1 3 5 9 11 20 19 23 16 17 20 6 24 45 48 41 32
36 32 32 35 36 40 44 49 44 40 33 12 4 10 13 15 7 6 11 11 11 5 4 4 18 6 9 7 3 2 2 13 13 21 32 23 15 6 36 10 30 36 37 39 33
36 35 33 33 35 38 44 43 41 39 30 10 6 13 15 9 6 6 18 17 5 3 4 4 14 6 9 7 7 3 5 11 10 27 26 24 27 12 40 12 31 44 44 38 32
35 35 33 33 33 37 44 38 39 35 25 9 7 16 13 8 8 12 23 15 10 11 19 12 3 11 15 5 4 4 9 5 10 25 19 12 4 6 28 25 36 44 42 36 33
35 35 33 33 33 35 39 40 38 34 17 6 7 16 15 9 13 22 22 17 11 6 12 19 11 10 8 5 6 9 8 9 1 15 4 11 10 25 32 46 48 48 43 39 36
34 34 32 32 31 33 35 43 36 17 9 5 8 13 8 15 21 25 22 15 7 3 7 6 5 11 5 16 9 10 9 4 6 22 7 20 22 31 36 56 59 56 51 50 47
33 32 32 31 29 31 37 35 15 15 22 3 9 9 5 12 11 21 20 9 4 8 10 10 9 9 12 8 7 10 5 11 12 23 8 12 18 14 45 58 56 61 58 57 53
31 32 31 30 28 30 32 29 7 9 27 4 1 4 6 7 6 16 17 13 4 8 9 5 5 6 7 7 9 8 7 7 11 14 12 14 43 8 34 49 53 64 62 62 62
31 31 30 27 26 26 27 35 13 4 32 6 11 10 6 3 11 13 17 11 7 0 4 5 9 6 16 19 10 4 6 9 7 7 12 21 27 18 32 45 33 50 71 72 69
30 30 31 25 23 17 19 35 33 24 19 29 27 38 26 13 2 7 18 12 7 4 3 8 3 8 10 2 7 6 6 10 2 4 8 0 20 4 13 36 48 55 67 72 74
29 30 30 25 19 10 8 28 34 26 8 18 14 19 14 12 8 14 19 11 4 4 2 6 9 20 9 10 6 6 8 3 4 4 4 9 14 9 6 8 36 55 62 68 76
28 30 30 26 6 19 2 25 33 17 8 12 7 9 16 7 4 9 18 8 4 4 9 3 9 10 17 6 6 7 6 9 8 7 5 6 7 7 7 14 18 44 58 74 77
27 29 27 26 26 21 15 24 29 2 5 2 6 7 20 16 9 13 16 17 12 6 8 11 8 13 7 9 0 6 7 10 7 7 3 9 6 14 10 11 12 29 54 53 62
26 29 27 27 25 9 26 28 6 9 2 3 6 7 9 5 4 6 10 9 5 8 2 9 9 6 8 5 7 11 9 14 8 5 8 11 5 11 7 7 16 16 28 32 43
27 27 30 28 23 23 26 18 9 6 7 1 6 5 4 3 1 4 5 4 8 7 7 12 10 8 6 6 9 8 11 6 9 11 7 9 3 16 12 10 9 27 43 50 54
27 28 28 25 19 16 17 8 7 3 8 8 5 7 11 9 6 2 6 3 3 10 6 6 14 3 8 4 7 6 8 10 3 2 9 8 8 10 8 6 10 18 30 39 53
27 26 24 12 7 5 7 6 8 5 6 11 3 8 2 5 6 5 10 8 13 16 15 10 10 7 4 5 6 3 3 6 12 6 4 6 13 13 4 2 10 18 27 39 53
28 25 8 7 10 3 8 8 7 8 11 4 4 5 6 2 8 11 11 6 9 26 14 13 3 5 9 7 12 5 8 5 7 0 6 9 10 10 9 11 6 15 32 41 44
23 12 12 17 11 2 4 9 10 22 13 3 5 4 3 1 7 9 9 6 4 5 14 10 8 11 3 2 9 2 2 11 9 7 8 3 13 9 9 14 12 13 22 31 35
14 6 17 24 3 4 2 7 13 14 9 4 5 4 2 4 6 5 6 8 12 17 12 1 9 2 12 7 5 2 7 9 9 8 4 7 13 5 5 12 5 7 15 24 30
17 8 1 11 5 4 10 8 9 7 9 9 7 6 6 6 7 4 6 5 10 5 14 12 6 6 16 12 8 3 4 9 9 6 9 9 12 4 4 9 11 10 16 23 31
10 6 2 11 3 7 6 9 9 14 11 5 4 6 8 14 12 6 9 13 15 12 16 9 7 11 11 11 6 9 6 6 8 6 7 11 12 7 12 15 8 10 15 26 35
6 4 2 3 5 2 1 6 9 11 5 10 7 5 2 8 8 9 9 10 11 10 7 8 7 7 8 11 5 6 2 7 10 7 9 6 11 14 13 5 5 7 15 27 32
5 8 7 6 10 1 1 6 7 10 2 6 9 6 5 8 5 2 2 3 3 9 6 6 2 3 4 4 7 5 9 6 4 5 13 8 12 3 5 4 4 9 7 6 18
4 12 10 5 4 4 7 8 8 11 3 2 15 7 7 3 3 5 7 9 6 5 3 5 9 6 8 8 8 8 6 6 3 9 3 7 6 6 1 2 7 7 10 15 12
Wind_Direction_500mb
350 355 1 1 3 6 5 5 4 5 7 4 37 141 150 152 156 166 167 169 151 142 189 193 216 232 207 303 59 104 69 154 193 170 201 167 143 170 229 161 184 210 189 185 172
348 347 353 358 357 0 1 359 356 356 358 352 27 154 155 161 167 162 171 183 161 210 156 219 215 206 163 164 129 87 103 213 185 183 183 167 167 170 161 161 108 147 170 168 176
342 346 347 352 354 355 354 354 349 347 346 335 298 163 156 165 141 155 151 143 210 206 243 206 193 148 125 150 250 107 172 166 209 176 168 158 178 167 164 225 191 166 170 179 186
333 340 342 345 350 348 349 348 346 337 337 318 199 169 159 152 155 141 166 185 221 206 213 171 182 184 119 133 146 324 280 171 177 186 158 162 173 219 188 235 218 193 180 182 193
325 330 335 339 344 343 344 345 343 339 335 309 204 171 159 161 173 151 144 169 171 335 340 238 189 166 111 105 126 56 347 203 203 182 174 173 184 188 199 267 196 184 184 192 201
321 323 327 332 338 340 341 341 336 335 331 306 212 174 170 156 197 171 156 164 96 34 51 60 301 112 108 106 128 95 66 358 177 168 174 165 0 218 222 207 186 190 196 207 219
319 321 321 326 333 336 340 337 328 327 321 283 208 185 184 155 154 160 154 161 135 69 23 32 119 6 99 65 71 79 71 6 96 174 188 170 266 230 220 193 191 198 209 219 232
319 321 320 324 331 334 341 337 337 17 335 257 202 192 192 178 164 171 166 176 160 8 325 310 172 108 111 127 30 61 38 34 254 159 211 157 263 223 212 188 194 202 212 223 233
319 322 320 326 332 333 344 336 342 37 24 292 185 188 210 198 196 191 190 181 145 347 320 201 192 91 133 105 25 17 205 210 329 197 139 189 277 325 199 194 196 207 216 228 236
320 322 322 329 333 338 355 335 284 305 2 59 184 191 204 158 195 214 215 207 268 341 67 113 97 54 47 77 250 209 221 224 216 213 191 213 253 335 202 200 204 209 222 230 241
320 322 323 331 332 348 8 27 16 310 338 251 288 279 249 256 230 208 203 220 255 82 99 74 74 241 251 221 213 191 198 244 225 212 156 231 266 251 239 219 218 221 225 232 243
319 323 323 332 332 349 10 40 20 317 307 295 264 265 255 278 194 193 179 178 190 162 153 26 301 249 321 96 148 148 255 268 114 12 160 68 268 331 283 223 215 227 235 240 247
320 324 323 331 332 350 12 12 353 343 276 294 242 241 240 215 205 185 184 177 128 101 66 158 266 305 16 354 113 217 201 107 58 45 89 347 313 350 333 239 222 237 249 251 255
320 322 325 335 355 351 101 341 338 332 54 280 238 218 206 196 242 198 205 173 74 157 163 285 299 334 342 323 132 332 243 122 117 60 278 11 279 314 306 296 246 244 249 254 259
317 318 326 330 326 336 318 324 330 265 40 308 187 180 177 169 149 197 205 203 160 186 96 256 312 326 331 298 182 291 61 92 96 130 107 354 56 275 338 315 283 261 261 266 272
313 314 318 317 322 330 320 330 326 44 339 34 174 152 131 217 159 115 175 184 147 135 20 228 262 222 223 24 72 120 55 39 53 70 21 334 84 294 299 290 308 313 319 323 330
308 310 310 310 313 308 322 334 49 120 334 89 183 158 108 183 187 99 121 126 151 89 341 342 282 316 219 73 25 85 65 353 3 8 241 300 22 246 289 311 272 298 322 335 344
306 306 302 310 301 302 328 45 62 300 273 306 103 91 170 166 225 106 109 220 169 99 113 143 325 1 342 107 173 40 138 145 231 263 270 318 244 262 230 303 318 319 329 340 347
310 309 311 326 273 304 333 55 211 224 281 324 37 102 239 214 153 138 182 216 215 170 165 160 271 297 34 113 107 189 42 148 105 25 40 263 295 319 272 279 347 342 340 342 354
325 329 344 181 188 344 68 238 255 234 325 326 95 130 177 155 152 149 189 213 240 194 160 212 301 255 169 89 44 134 146 34 14 163 287 291 285 244 310 292 303 327 330 352 3
332 339 348 163 178 325 146 243 284 294 283 295 42 40 55 335 172 178 193 272 243 66 137 140 118 280 59 219 204 83 340 58 116 124 175 272 276 225 259 278 217 272 332 349 5
329 343 348 163 97 29 185 208 311 300 329 321 113 55 63 174 128 205 181 233 333 148 138 115 130 222 237 266 220 142 177 133 121 242 160 149 273 281 279 319 212 302 341 352 1
325 293 360 181 130 307 299 285 271 306 303 350 47 21 12 59 86 46 23 13 55 129 161 180 31 34 348 358 358 334 110 96 103 75 192 136 267 166 250 247 244 331 348 357 351
314 356 119 205 174 129 353 297 305 309 263 344 48 45 38 31 13 60 20 355 29 70 75 110 104 143 185 213 200 312 315 142 138 114 180 225 285 299 253 243 264 334 5 359 350
293 311 12 288 335 80 27 295 320 320 323 23 23 49 274 42 30 32 3 1 20 25 53 92 126 150 212 234 226 248 322 172 211 192 172 272 209 263 242 254 203 14 18 4 358
315 341 344 287 312 284 245 268 232 272 284 348 108 13 100 111 137 6 57 40 244 355 63 9 170 90 267 263 334 264 298 260 132 132 263 285 280 272 315 299 232 45 44 19 353
289 306 312 316 62 92 228 247 268 332 322 195 166 101 72 158 225 300 294 296 282 351 93 73 123 84 267 338 5 352 281 322 102 72 317 237 286 278 262 323 11 348 305 334 329
Wind_Speed_850mb
33 34 36 40 44 46 50 54 52 41 30 15 4 6 10 11 11 13 13 8 7 6 7 7 10 11 4 2 2 6 9 7 13 12 9 21 9 15 5 11 5 5 18 23 33
30 34 36 37 40 43 47 52 51 39 32 14 3 6 10 9 9 13 12 8 4 1 3 3 8 11 9 5 2 6 7 15 16 12 10 21 15 20 13 13 4 17 26 37 33
31 31 35 37 38 41 45 49 49 38 33 13 1 8 12 10 10 10 14 6 4 6 3 2 5 16 8 8 1 3 5 9 11 20 19 23 16 17 20 6 24 45 48 41 32
36 32 32 35 36 40 44 49 44 40 33 12 4 10 13 15 7 6 11 11 11 5 4 4 18 6 9 7 3 2 2 13 13 21 32 23 15 6 36 10 30 36 37 39 33
36 35 33 33 35 38 44 43 41 39 30 10 6 13 15 9 6 6 18 17 5 3 4 4 14 6 9 7 7 3 5 11 10 27 26 24 27 12 40 12 31 44 44 38 32
35 35 33 33 33 37 44 38 39 35 25 9 7 16 13 8 8 12 23 15 10 11 19 12 3 11 15 5 4 4 9 5 10 25 19 12 4 6 28 25 36 44 42 36 33
35 35 33 33 33 35 39 40 38 34 17 6 7 16 15 9 13 22 22 17 11 6 12 19 11 10 8 5 6 9 8 9 1 15 4 11 10 25 32 46 48 48 43 39 36
34 34 32 32 31 33 35 43 36 17 9 5 8 13 8 15 21 25 22 15 7 3 7 6 5 11 5 16 9 10 9 4 6 22 7 20 22 31 36 56 59 56 51 50 47
33 32 32 31 29 31 37 35 15 15 22 3 9 9 5 12 11 21 20 9 4 8 10 10 9 9 12 8 7 10 5 11 12 23 8 12 18 14 45 58 56 61 58 57 53
31 32 31 30 28 30 32 29 7 9 27 4 1 4 6 7 6 16 17 13 4 8 9 5 5 6 7 7 9 8 7 7 11 14 12 14 43 8 34 49 53 64 62 62 62
31 31 30 27 26 26 27 35 13 4 32 6 11 10 6 3 11 13 17 11 7 0 4 5 9 6 16 19 10 4 6 9 7 7 12 21 27 18 32 45 33 50 71 72 69
30 30 31 25 23 17 19 35 33 24 19 29 27 38 26 13 2 7 18 12 7 4 3 8 3 8 10 2 7 6 6 10 2 4 8 0 20 4 13 36 48 55 67 72 74
29 30 30 25 19 10 8 28 34 26 8 18 14 19 14 12 8 14 19 11 4 4 2 6 9 20 9 10 6 6 8 3 4 4 4 9 14 9 6 8 36 55 62 68 76
28 30 30 26 6 19 2 25 33 17 8 12 7 9 16 7 4 9 18 8 4 4 9 3 9 10 17 6 6 7 6 9 8 7 5 6 7 7 7 14 18 44 58 74 77
27 29 27 26 26 21 15 24 29 2 5 2 6 7 20 16 9 13 16 17 12 6 8 11 8 13 7 9 0 6 7 10 7 7 3 9 6 14 10 11 12 29 54 53 62
26 29 27 27 25 9 26 28 6 9 2 3 6 7 9 5 4 6 10 9 5 8 2 9 9 6 8 5 7 11 9 14 8 5 8 11 5 11 7 7 16 16 28 32 43
27 27 30 28 23 23 26 18 9 6 7 1 6 5 4 3 1 4 5 4 8 7 7 12 10 8 6 6 9 8 11 6 9 11 7 9 3 16 12 10 9 27 43 50 54
27 28 28 25 19 16 17 8 7 3 8 8 5 7 11 9 6 2 6 3 3 10 6 6 14 3 8 4 7 6 8 10 3 2 9 8 8 10 8 6 10 18 30 39 53
27 26 24 12 7 5 7 6 8 5 6 11 3 8 2 5 6 5 10 8 13 16 15 10 10 7 4 5 6 3 3 6 12 6 4 6 13 13 4 2 10 18 27 39 53
28 25 8 7 10 3 8 8 7 8 11 4 4 5 6 2 8 11 11 6 9 26 14 13 3 5 9 7 12 5 8 5 7 0 6 9 10 10 9 11 6 15 32 41 44
23 12 12 17 11 2 4 9 10 22 13 3 5 4 3 1 7 9 9 6 4 5 14 10 8 11 3 2 9 2 2 11 9 7 8 3 13 9 9 14 12 13 22 31 35
14 6 17 24 3 4 2 7 13 14 9 4 5 4 2 4 6 5 6 8 12 17 12 1 9 2 12 7 5 2 7 9 9 8 4 7 13 5 5 12 5 7 15 24 30
17 8 1 11 5 4 10 8 9 7 9 9 7 6 6 6 7 4 6 5 10 5 14 12 6 6 16 12 8 3 4 9 9 6 9 9 12 4 4 9 11 10 16 23 31
10 6 2 11 3 7 6 9 9 14 11 5 4 6 8 14 12 6 9 13 15 12 16 9 7 11 11 11 6 9 6 6 8 6 7 11 12 7 12 15 8 10 15 26 35
6 4 2 3 5 2 1 6 9 11 5 10 7 5 2 8 8 9 9 10 11 10 7 8 7 7 8 11 5 6 2 7 10 7 9 6 11 14 13 5 5 7 15 27 32
5 8 7 6 10 1 1 6 7 10 2 6 9 6 5 8 5 2 2 3 3 9 6 6 2 3 4 4 7 5 9 6 4 5 13 8 12 3 5 4 4 9 7 6 18
4 12 10 5 4 4 7 8 8 11 3 2 15 7 7 3 3 5 7 9 6 5 3 5 9 6 8 8 8 8 6 6 3 9 3 7 6 6 1 2 7 7 10 15 12
Wind_Direction_850mb
350 355 1 1 3 6 5 5 4 5 7 4 37 141 150 152 156 166 167 169 151 142 189 193 216 232 207 303 59 104 69 154 193 170 201 167 143 170 229 161 184 210 189 185 172
348 347 353 358 357 0 1 359 356 356 358 352 27 154 155 161 167 162 171 183 161 210 156 219 215 206 163 164 129 87 103 213 185 183 183 167 167 170 161 161 108 147 170 168 176
342 346 347 352 354 355 354 354 349 347 346 335 298 163 156 165 141 155 151 143 210 206 243 206 193 148 125 150 250 107 172 166 209 176 168 158 178 167 164 225 191 166 170 179 186
333 340 342 345 350 348 349 348 346 337 337 318 199 169 159 152 155 141 166 185 221 206 213 171 182 184 119 133 146 324 280 171 177 186 158 162 173 219 188 235 218 193 180 182 193
325 330 335 339 344 343 344 345 343 339 335 309 204 171 159 161 173 151 144 169 171 335 340 238 189 166 111 105 126 56 347 203 203 182 174 173 184 188 199 267 196 184 184 192 201
321 323 327 332 338 340 341 341 336 335 331 306 212 174 170 156 197 171 156 164 96 34 51 60 301 112 108 106 128 95 66 358 177 168 174 165 0 218 222 207 186 190 196 207 219
319 321 321 326 333 336 340 337 328 327 321 283 208 185 184 155 154 160 154 161 135 69 23 32 119 6 99 65 71 79 71 6 96 174 188 170 266 230 220 193 191 198 209 219 232
319 321 320 324 331 334 341 337 337 17 335 257 202 192 192 178 164 171 166 176 160 8 325 310 172 108 111 127 30 61 38 34 254 159 211 157 263 223 212 188 194 202 212 223 233
319 322 320 326 332 333 344 336 342 37 24 292 185 188 210 198 196 191 190 181 145 347 320 201 192 91 133 105 25 17 205 210 329 197 139 189 277 325 199 194 196 207 216 228 236
320 322 322 329 333 338 355 335 284 305 2 59 184 191 204 158 195 214 215 207 268 341 67 113 97 54 47 77 250 209 221 224 216 213 191 213 253 335 202 200 204 209 222 230 241
320 322 323 331 332 348 8 27 16 310 338 251 288 279 249 256 230 208 203 220 255 82 99 74 74 241 251 221 213 191 198 244 225 212 156 231 266 251 239 219 218 221 225 232 243
319 323 323 332 332 349 10 40 20 317 307 295 264 265 255 278 194 193 179 178 190 162 153 26 301 249 321 96 148 148 255 268 114 12 160 68 268 331 283 223 215 227 235 240 247
320 324 323 331 332 350 12 12 353 343 276 294 242 241 240 215 205 185 184 177 128 101 66 158 266 305 16 354 113 217 201 107 58 45 89 347 313 350 333 239 222 237 249 251 255
320 322 325 335 355 351 101 341 338 332 54 280 238 218 206 196 242 198 205 173 74 157 163 285 299 334 342 323 132 332 243 122 117 60 278 11 279 314 306 296 246 244 249 254 259
317 318 326 330 326 336 318 324 330 265 40 308 187 180 177 169 149 197 205 203 160 186 96 256 312 326 331 298 182 291 61 92 96 130 107 354 56 275 338 315 283 261 261 266 272
313 314 318 317 322 330 320 330 326 44 339 34 174 152 131 217 159 115 175 184 147 135 20 228 262 222 223 24 72 120 55 39 53 70 21 334 84 294 299 290 308 313 319 323 330
308 310 310 310 313 308 322 334 49 120 334 89 183 158 108 183 187 99 121 126 151 89 341 342 282 316 219 73 25 85 65 353 3 8 241 300 22 246 289 311 272 298 322 335 344
306 306 302 310 301 302 328 45 62 300 273 306 103 91 170 166 225 106 109 220 169 99 113 143 325 1 342 107 173 40 138 145 231 263 270 318 244 262 230 303 318 319 329 340 347
310 309 311 326 273 304 333 55 211 224 281 324 37 102 239 214 153 138 182 216 215 170 165 160 271 297 34 113 107 189 42 148 105 25 40 263 295 319 272 279 347 342 340 342 354
325 329 344 181 188 344 68 238 255 234 325 326 95 130 177 155 152 149 189 213 240 194 160 212 301 255 169 89 44 134 146 34 14 163 287 291 285 244 310 292 303 327 330 352 3
332 339 348 163 178 325 146 243 284 294 283 295 42 40 55 335 172 178 193 272 243 66 137 140 118 280 59 219 204 83 340 58 116 124 175 272 276 225 259 278 217 272 332 349 5
329 343 348 163 97 29 185 208 311 300 329 321 113 55 63 174 128 205 181 233 333 148 138 115 130 222 237 266 220 142 177 133 121 242 160 149 273 281 279 319 212 302 341 352 1
325 293 360 181 130 307 299 285 271 306 303 350 47 21 12 59 86 46 23 13 55 129 161 180 31 34 348 358 358 334 110 96 103 75 192 136 267 166 250 247 244 331 348 357 351
314 356 119 205 174 129 353 297 305 309 263 344 48 45 38 31 13 60 20 355 29 70 75 110 104 143 185 213 200 312 315 142 138 114 180 225 285 299 253 243 264 334 5 359 350
293 311 12 288 335 80 27 295 320 320 323 23 23 49 274 42 30 32 3 1 20 25 53 92 126 150 212 234 226 248 322 172 211 192 172 272 209 263 242 254 203 14 18 4 358
315 341 344 287 312 284 245 268 232 272 284 348 108 13 100 111 137 6 57 40 244 355 63 9 170 90 267 263 334 264 298 260 132 132 263 285 280 272 315 299 232 45 44 19 353
289 306 312 316 62 92 228 247 268 332 322 195 166 101 72 158 225 300 294 296 282 351 93 73 123 84 267 338 5 352 281 322 102 72 317 237 286 278 262 323 11 348 305 334 329